Вернуться в каталог

BEIDOU 16

АктивенНавигацияGEO
NORAD 38953·PAYLOAD·🇨🇳 China

Запущен Oct 25, 2012 с Xichang Satellite Launch Center

Loading…

TLE

СвежийSource: Space-Track

Эпоха: Sep 14, 2026, 14:12 UTC

1 38953U 12059A   26257.59174108 -.00000182  00000-0  00000-0 0  9994
2 38953   4.6427  72.5064 0006936 324.2570 253.8476  1.00270124 50809

Отслеживайте BEIDOU 16 в реальном времени с AllMySat

Download on the App Store